This demonstration page uses our WeatherBlox Daily Observations layout. Learn more.

39.92423, -83.80882

Hourly Observations for May 9, 2015

Temp ( °F °C ) Dew Point ( °F °C ) Humidity (%) Winds ( mph kmh ) Pressure ( in mb ) Visibility ( mi km ) Precip ( " mm )
12:56 am 00:56 Clear 68 20 57 13.8 68 68 SSW 5 7 30.03 1017 7 11.26538 0 0
1:56 am 01:56 Clear 69 20.5 57 13.8 66 66 S 3 6 30.02 1017 7 11.26538 0 0
2:56 am 02:56 Clear 65 18.3 56 13.3 73 73 SSW 3 6 30.03 1017 7 11.26538 0 0
3:56 am 03:56 Clear 65 18.3 57 13.8 75 75 SSW 6 9 30.04 1017 7 11.26538 0 0
4:56 am 04:56 Clear 63 17.2 57 13.8 81 81 Calm 30.05 1018 7 11.26538 0 0
5:56 am 05:56 Clear 65 18.3 58 14.4 78 78 SSW 3 6 30.08 1019 7 11.26538 0 0
6:56 am 06:56 Sunny 64 17.7 58 14.4 81 81 SSW 6 9 30.1 1019 7 11.26538 0 0
7:56 am 07:56 Hazy 67 19.4 61 16.1 81 81 SW 6 9 30.1 1019 5 8.0467 0 0
8:56 am 08:56 Hazy 69 20.5 61 16.1 76 76 S 3 6 30.1 1019 5 8.0467 0 0
9:56 am 09:56 Hazy 72 22.2 62 16.6 71 71 SSW 8 13 30.1 1019 6 9.65604 0 0
10:56 am 10:56 Hazy 75 23.8 63 17.2 67 67 S 6 9 30.09 1019 6 9.65604 0 0
11:56 am 11:56 Hazy 78 25.5 63 17.2 60 60 S 5 7 30.08 1019 6 9.65604 0 0
12:56 pm 12:56 Hazy 84 28.8 63 17.2 50 50 S 14 22 30.07 1018 6 9.65604 0 0
1:56 pm 13:56 Hazy 85 29.4 61 16.1 45 45 SW 15 24 30.06 1018 6 9.65604 0 0
2:56 pm 14:56 Hazy 87 30.5 59 15 39 39 S 13 20 30.04 1017 6 9.65604 0 0
3:56 pm 15:56 Hazy 87 30.5 61 16.1 42 42 S 10 17 30.02 1017 6 9.65604 0 0
4:56 pm 16:56 Hazy 87 30.5 60 15.5 40 40 SW 16 26 30.01 1016 6 9.65604 0 0
5:56 pm 17:56 Hazy 87 30.5 60 15.5 40 40 SW 14 22 30.02 1017 6 9.65604 0 0
6:56 pm 18:56 Hazy 83 28.3 62 16.6 49 49 WSW 7 11 30.03 1017 6 9.65604 0 0
7:56 pm 19:56 Hazy 79 26.1 62 16.6 56 56 W 6 9 30.04 1017 5 8.0467 0 0
8:56 pm 20:56 Clear 75 23.8 64 17.7 69 69 NNW 5 7 30.05 1018 7 11.26538 0 0
9:56 pm 21:56 Clear 73 22.7 65 18.3 76 76 N 3 6 30.07 1018 7 11.26538 0 0
10:56 pm 22:56 Hazy 71 21.6 65 18.3 82 82 N 3 6 30.08 1019 6 9.65604 0 0
11:56 pm 23:56 Clear 69 20.5 65 18.3 87 87 NNW 6 9 30.09 1019 7 11.26538 0 0

Powered by AerisWeather